Home   Weather   Pudukkottai   Past weeks

Flag for India Past Weather in Pudukkottai, Tamil Nadu, India — Yesterday and Last 2 Weeks

Now
82 °F

Scattered clouds.


Feels Like: 88 °F
Forecast: 79 / 92 °F
Wind: 6 mph from West

Location: Tiruchchirapalli

Current Time: Aug 19, 2017 at 9:12:43 am

Latest Report: Aug 19, 2017 at 8:30 am


Visibility: 4 mi

Pressure: 29.68 "Hg

Humidity: 74%

Dew Point: 73 °F

Location of PudukkottaiLocation

Past Weather in Pudukkottai — Graph

°F

Pudukkottai Temperature Yesterday

Maximum temperature yesterday: 95 °F (at 3:00 pm)
Minimum temperature yesterday: 79 °F (at 7:00 am)
Average temperature yesterday: 83 °F

High & Low Weather Summary for the Past Weeks

 TemperatureHumidityPressure
High100 °F (Aug 6, 3:00 pm)100% (Aug 9, 1:30 am)29.89 "Hg (Aug 9, 1:30 am)
Low73 °F (Aug 14, 8:30 pm)35% (Aug 7, 3:00 pm)29.53 "Hg (Aug 6, 4:00 pm)
Average86 °F67%29.70 "Hg
* Reported Aug 4 7:30 am — Aug 19 8:00 am, Pudukkottai. Weather by CustomWeather, © 2017

Note: Actual official high and low records may vary slightly from our data, if they occured in-between our weather recording intervals... More about our weather records

Advertising

Pudukkottai Weather History for the Previous 24 Hours

Scroll right to see more
 ConditionsComfort  
Time TempWeatherWind HumidityBarometerVisibility
8:00 am
Sat, Aug 19
82 °FScattered clouds.5 mph70%29.68 "Hg4 mi
7:30 am81 °FPartly sunny.3 mph74%29.68 "Hg4 mi
7:00 am81 °FFog.No wind79%29.65 "Hg3 mi
6:30 am79 °FFog.3 mph84%29.65 "Hg3 mi
6:00 am79 °FFog.7 mph84%29.62 "Hg3 mi
5:30 am79 °FFog.9 mph84%29.62 "Hg3 mi
5:00 am79 °FFog.9 mph89%29.62 "Hg3 mi
4:30 am79 °FFog.12 mph89%29.62 "Hg3 mi
4:00 am79 °FPartly cloudy.9 mph89%29.62 "Hg3 mi
3:30 am79 °FPartly cloudy.9 mph89%29.62 "Hg3 mi
3:00 am79 °FPartly cloudy.7 mph89%29.62 "Hg3 mi
2:30 am79 °FFog.7 mph89%29.62 "Hg3 mi
2:00 am79 °FFog.6 mph94%29.65 "Hg3 mi
1:30 am79 °FFog.3 mph94%29.65 "Hg3 mi
1:00 am79 °FFog.No wind94%29.65 "Hg3 mi
12:30 am79 °FFog.No wind94%29.68 "Hg3 mi
12:00 am79 °FPartly cloudy.No wind94%29.68 "Hg3 mi
11:30 pm
Fri, Aug 18
79 °FPartly cloudy.3 mph94%29.68 "Hg3 mi
11:00 pm79 °FPartly cloudy.No wind94%29.71 "Hg3 mi
10:30 pm79 °FPartly cloudy.No wind94%29.71 "Hg3 mi
10:00 pm79 °FPartly cloudy.No wind94%29.68 "Hg3 mi
9:30 pm79 °FDrizzle. Mostly cloudy.No wind94%29.68 "Hg3 mi
9:00 pm79 °FDrizzle. Mostly cloudy.3 mph94%29.68 "Hg3 mi
8:30 pm79 °FDrizzle. Mostly cloudy.No wind94%29.68 "Hg3 mi
8:00 pm79 °FFog.3 mph89%N/A3 mi
7:30 pm79 °FMostly cloudy.3 mph89%29.65 "Hg3 mi
7:00 pm79 °FDrizzle. More clouds than sun.3 mph89%29.65 "Hg3 mi
6:30 pm84 °FDrizzle. More clouds than sun.3 mph70%29.62 "Hg3 mi
6:00 pm84 °FBroken clouds.5 mph70%29.59 "Hg4 mi
5:30 pm82 °FRain. Broken clouds.7 mph74%29.59 "Hg1 mi
5:00 pm91 °FBroken clouds.6 mph56%29.56 "Hg4 mi
4:30 pm93 °FBroken clouds.6 mph53%29.56 "Hg4 mi
4:00 pm93 °FBroken clouds.3 mph53%29.56 "Hg4 mi
3:30 pm93 °FBroken clouds.3 mph53%29.56 "Hg4 mi
3:00 pm95 °FBroken clouds.3 mph47%29.56 "Hg4 mi
2:30 pm93 °FBroken clouds.5 mph49%29.59 "Hg4 mi
2:00 pm90 °FBroken clouds.5 mph55%29.59 "Hg4 mi
1:30 pm90 °FBroken clouds.7 mph55%29.62 "Hg4 mi
1:00 pm88 °FBroken clouds.7 mph62%29.62 "Hg4 mi
12:30 pm88 °FBroken clouds.8 mph62%29.65 "Hg4 mi
12:00 pm88 °FBroken clouds.8 mph62%29.65 "Hg4 mi
11:30 am86 °FBroken clouds.9 mph66%29.68 "Hg4 mi
11:00 am84 °FBroken clouds.9 mph70%29.68 "Hg4 mi
10:30 am82 °FBroken clouds.8 mph74%29.68 "Hg4 mi
10:00 am82 °FBroken clouds.7 mph74%29.68 "Hg3 mi
9:30 am82 °FBroken clouds.3 mph74%29.68 "Hg3 mi
9:00 am82 °FScattered clouds.7 mph74%29.68 "Hg3 mi
Weather by CustomWeather, © 2017

See weather overviewHow to use our weather pages